Flag for Germany Weather past 2 weeks in Singen (Hohentwiel), Baden-Württemberg, Germany

Now
95 °F

Partly sunny.


Feels Like: 94 °F
Forecast: 65 / 94 °F
Wind: 2 mph from South

Location: Konstanz

Current Time: Jul 4, 2015 at 5:48:53 PM

Latest Report: Jul 4, 2015 at 5:00 PM


Visibility: 19 mi

Pressure: 30.05 "Hg

Humidity: 29%

Dew point: 58 °F

Location of Singen (Hohentwiel)Location

Historic Weather in Singen (Hohentwiel) — Graph

°F

Singen (Hohentwiel) temperature yesterday

Maximum temperature yesterday: 94 °F (at 5:00 PM)
Minimum temperature yesterday: 70 °F (at 5:00 AM)
Average temperature yesterday: 81 °F

Past Weeks' High & Low Weather Summary

 TemperatureHumidityPressure
High95 °F (Jul 4, 5:00 PM)94% (Jun 21, 9:00 AM)30.23 "Hg (Jun 21, 9:00 AM)
Low49 °F (Jun 24, 5:00 AM)21% (Jun 26, 4:00 PM)29.72 "Hg (Jun 22, 10:00 PM)
Average68 °F64%30.09 "Hg
* Reported Jun 19 5:00 PM — Jul 4 5:00 PM, Singen (Hohentwiel), Weather by CustomWeather, © 2015

Note: Actual official high and low records may vary slightly from our data, if they occured in-between our weather recording intervals... More about our weather records

Advertising

Singen (Hohentwiel) weather history for previous 24 hours

 ConditionsComfort  
Time TempWeatherWind HumidityBarometerVisibility
5:00 PM
Sat, Jul 4
95 °FPartly sunny.2 mph29%30.05 "Hg19 mi
4:00 PM94 °FPartly sunny.2 mph26%30.06 "Hg19 mi
3:00 PM92 °FPartly sunny.2 mph38%30.08 "Hg19 mi
2:00 PM91 °FScattered clouds.2 mph46%30.09 "Hg16 mi
1:00 PM86 °FPartly sunny.2 mph53%30.12 "Hg12 mi
12:00 PM84 °FScattered clouds.2 mph57%30.13 "Hg11 mi
11:00 AM81 °FPassing clouds.2 mph60%30.15 "Hg11 mi
10:00 AM81 °FPassing clouds.1 mph62%30.15 "Hg11 mi
9:00 AM76 °FPassing clouds.1 mph65%30.16 "Hg11 mi
8:00 AM72 °FSunny.1 mph76%30.17 "Hg12 mi
7:00 AM69 °FSunny.1 mph83%30.16 "Hg11 mi
6:00 AM69 °FSunny.2 mph79%30.16 "Hg11 mi
5:00 AM69 °FClear.2 mph79%30.16 "Hg25 mi
4:00 AM70 °FClear.2 mph78%30.15 "Hg25 mi
3:00 AM72 °FClear.2 mph78%30.15 "Hg22 mi
2:00 AM73 °FClear.1 mph72%30.16 "Hg25 mi
1:00 AM74 °FClear.1 mph75%30.16 "Hg4 mi
12:00 AM76 °FClear.1 mph64%30.16 "Hg28 mi
11:00 PM
Fri, Jul 3
79 °FClear.2 mph63%30.16 "Hg25 mi
10:00 PM80 °FClear.2 mph65%30.14 "Hg25 mi
9:00 PM84 °FScattered clouds.3 mph54%30.11 "Hg16 mi
8:00 PM87 °FScattered clouds.5 mph49%30.11 "Hg12 mi
7:00 PM89 °FScattered clouds.3 mph49%30.14 "Hg12 mi
6:00 PM93 °FPassing clouds.2 mph43%30.11 "Hg12 mi
5:00 PM94 °FPassing clouds.1 mph41%30.09 "Hg14 mi
Weather by CustomWeather, © 2015

See weather overviewHow to use our weather pages